VOE76RL LFRS-LEMH

Flight info

Callsign VOE76RL
Flight time 1h 20m
Altitude 39000
Route LUGEN UM184 TUPAR DCT CNA DCT SECHE DCT AGN DCT TOU DCT LOMRA DCT ROCAN DCT GEANT N727 SARGO
Aircraft A319/M-SDFGIJ1RWY/LB1

Departure

Time 2026-04-30 12:50
Airport Nantes Atlantique Airport (LFRS)

Arrival

Time 2026-04-30 14:11
Airport Menorca Airport (LEMH)
Time Latitude Longitude Altitude Speed Heading
2026-04-30 12:24 47.15859 -1.60281 90 ft 0 kts 117°
2026-04-30 12:39 47.15863 -1.60293 90 ft 4 kts 117°
2026-04-30 12:39 47.15875 -1.60327 91 ft 2 kts 117°
2026-04-30 12:39 47.15886 -1.60355 90 ft 4 kts 135°
2026-04-30 12:40 47.15899 -1.60362 91 ft 3 kts 208°
2026-04-30 12:40 47.15908 -1.60356 89 ft 0 kts 208°
2026-04-30 12:44 47.15904 -1.60358 89 ft 2 kts 208°
2026-04-30 12:44 47.15878 -1.60378 89 ft 7 kts 207°
2026-04-30 12:44 47.15822 -1.60420 92 ft 11 kts 207°
2026-04-30 12:45 47.15740 -1.60482 90 ft 15 kts 207°
2026-04-30 12:45 47.15631 -1.60566 92 ft 20 kts 207°
2026-04-30 12:45 47.15505 -1.60662 91 ft 20 kts 207°
2026-04-30 12:45 47.15378 -1.60759 92 ft 20 kts 207°
2026-04-30 12:46 47.15252 -1.60855 92 ft 21 kts 207°
2026-04-30 12:46 47.15119 -1.60956 90 ft 21 kts 207°
2026-04-30 12:46 47.14982 -1.61060 89 ft 23 kts 207°
2026-04-30 12:46 47.14860 -1.61152 90 ft 19 kts 207°
2026-04-30 12:47 47.14740 -1.61244 89 ft 20 kts 207°
2026-04-30 12:47 47.14621 -1.61335 89 ft 19 kts 207°
2026-04-30 12:47 47.14507 -1.61421 91 ft 18 kts 207°
2026-04-30 12:47 47.14394 -1.61508 87 ft 19 kts 207°
2026-04-30 12:48 47.14267 -1.61604 87 ft 20 kts 207°
2026-04-30 12:48 47.14171 -1.61699 83 ft 16 kts 237°
2026-04-30 12:48 47.14144 -1.61802 85 ft 10 kts 258°
2026-04-30 12:48 47.14154 -1.61895 84 ft 9 kts 294°
2026-04-30 12:49 47.14199 -1.61925 84 ft 8 kts 27°
2026-04-30 12:49 47.14229 -1.61903 85 ft 4 kts 27°
2026-04-30 12:49 47.14306 -1.61845 88 ft 44 kts 27°
2026-04-30 12:49 47.14812 -1.61457 91 ft 117 kts 27°
2026-04-30 12:50 47.15710 -1.60774 153 ft 165 kts 28°
2026-04-30 12:50 47.16970 -1.59629 1022 ft 162 kts 53°
2026-04-30 12:50 47.17261 -1.58614 1332 ft 162 kts 89°
2026-04-30 12:50 47.16997 -1.57045 1946 ft 159 kts 124°
2026-04-30 12:51 47.16172 -1.55995 2569 ft 160 kts 154°
2026-04-30 12:51 47.15174 -1.55286 3268 ft 160 kts 152°
2026-04-30 12:51 47.14129 -1.54497 3693 ft 179 kts 152°
2026-04-30 12:51 47.12962 -1.53609 4068 ft 199 kts 152°
2026-04-30 12:52 47.11676 -1.52647 4481 ft 218 kts 153°
2026-04-30 12:52 47.10248 -1.51580 4891 ft 243 kts 153°
2026-04-30 12:52 47.08692 -1.50415 5592 ft 257 kts 154°
2026-04-30 12:52 47.07096 -1.49156 6478 ft 264 kts 148°
2026-04-30 12:53 47.05648 -1.47450 7360 ft 269 kts 139°
2026-04-30 12:53 47.04242 -1.45610 8316 ft 272 kts 139°
2026-04-30 12:53 47.02827 -1.43755 9274 ft 275 kts 139°
2026-04-30 12:53 47.01392 -1.41873 10160 ft 279 kts 139°
2026-04-30 12:54 46.99890 -1.39909 10571 ft 301 kts 139°
2026-04-30 12:54 46.98300 -1.37838 11045 ft 316 kts 139°
2026-04-30 12:54 46.96620 -1.35646 11816 ft 322 kts 139°
2026-04-30 12:54 46.94934 -1.33446 12664 ft 326 kts 139°
2026-04-30 12:55 46.93253 -1.31254 13457 ft 330 kts 139°
2026-04-30 12:55 46.91528 -1.29009 14204 ft 334 kts 139°
2026-04-30 12:55 46.89929 -1.26935 14835 ft 337 kts 139°
2026-04-30 12:55 46.88162 -1.24644 15517 ft 341 kts 139°
2026-04-30 12:56 46.86380 -1.22332 16202 ft 345 kts 139°
2026-04-30 12:56 46.84578 -1.19996 16882 ft 348 kts 139°
2026-04-30 12:56 46.82758 -1.17640 17560 ft 351 kts 138°
2026-04-30 12:56 46.80920 -1.15258 18242 ft 355 kts 138°
2026-04-30 12:57 46.79067 -1.12854 18856 ft 358 kts 138°
2026-04-30 12:57 46.77197 -1.10429 19464 ft 361 kts 138°
2026-04-30 12:57 46.75318 -1.07996 20082 ft 363 kts 138°
2026-04-30 12:57 46.73420 -1.05542 20713 ft 366 kts 138°
2026-04-30 12:58 46.71509 -1.03073 21332 ft 368 kts 138°
2026-04-30 12:58 46.69587 -1.00592 21942 ft 371 kts 138°
2026-04-30 12:58 46.67649 -0.98092 22545 ft 374 kts 138°
2026-04-30 12:58 46.65695 -0.95576 23152 ft 376 kts 138°
2026-04-30 12:59 46.63726 -0.93041 23721 ft 379 kts 138°
2026-04-30 12:59 46.61744 -0.90492 24196 ft 382 kts 138°
2026-04-30 12:59 46.59747 -0.87926 24670 ft 384 kts 138°
2026-04-30 12:59 46.57735 -0.85345 25144 ft 386 kts 138°
2026-04-30 13:00 46.55717 -0.82754 25615 ft 388 kts 138°
2026-04-30 13:00 46.53688 -0.80142 26045 ft 391 kts 138°
2026-04-30 13:00 46.51645 -0.77508 26488 ft 394 kts 137°
2026-04-30 13:00 46.49595 -0.74866 26938 ft 396 kts 137°
2026-04-30 13:01 46.47556 -0.72244 27384 ft 398 kts 137°
2026-04-30 13:01 46.45482 -0.69578 27831 ft 400 kts 138°
2026-04-30 13:01 46.43247 -0.67151 28274 ft 403 kts 147°
2026-04-30 13:01 46.40740 -0.65309 28713 ft 407 kts 156°
2026-04-30 13:02 46.38041 -0.64000 29143 ft 410 kts 160°
2026-04-30 13:02 46.35312 -0.62752 29584 ft 412 kts 160°
2026-04-30 13:02 46.32572 -0.61501 30036 ft 413 kts 160°
2026-04-30 13:02 46.29828 -0.60240 30406 ft 415 kts 160°
2026-04-30 13:03 46.27069 -0.58967 30753 ft 417 kts 160°
2026-04-30 13:03 46.24302 -0.57688 31077 ft 419 kts 160°
2026-04-30 13:03 46.21522 -0.56406 31396 ft 421 kts 160°
2026-04-30 13:03 46.18727 -0.55122 31709 ft 423 kts 160°
2026-04-30 13:04 46.15921 -0.53836 32111 ft 422 kts 160°
2026-04-30 13:04 46.13126 -0.52559 32555 ft 421 kts 161°
2026-04-30 13:04 46.10335 -0.51284 33004 ft 420 kts 161°
2026-04-30 13:04 46.07553 -0.50015 33483 ft 419 kts 161°
2026-04-30 13:05 46.04778 -0.48751 33963 ft 418 kts 161°
2026-04-30 13:05 46.02013 -0.47492 34360 ft 417 kts 161°
2026-04-30 13:05 45.99244 -0.46234 34696 ft 417 kts 161°
2026-04-30 13:06 45.93689 -0.43711 35221 ft 421 kts 161°
2026-04-30 13:06 45.90891 -0.42436 35459 ft 423 kts 161°
2026-04-30 13:06 45.88081 -0.41155 35718 ft 424 kts 162°
2026-04-30 13:06 45.85267 -0.39877 35979 ft 425 kts 162°
2026-04-30 13:07 45.82440 -0.38600 36227 ft 426 kts 162°
2026-04-30 13:07 45.79610 -0.37328 36473 ft 427 kts 162°
2026-04-30 13:07 45.76772 -0.36051 36716 ft 428 kts 162°
2026-04-30 13:07 45.73926 -0.34765 36936 ft 429 kts 162°
2026-04-30 13:08 45.71074 -0.33476 37076 ft 431 kts 162°
2026-04-30 13:08 45.65383 -0.30750 37114 ft 432 kts 156°
2026-04-30 13:09 45.59977 -0.27018 37112 ft 431 kts 154°
2026-04-30 13:09 45.54576 -0.23276 37108 ft 433 kts 155°
2026-04-30 13:10 45.49144 -0.19530 37107 ft 434 kts 155°
2026-04-30 13:10 45.43741 -0.15823 37106 ft 434 kts 155°
2026-04-30 13:11 45.38302 -0.12095 37099 ft 434 kts 155°
2026-04-30 13:11 45.32848 -0.08351 37100 ft 436 kts 155°
2026-04-30 13:12 45.27382 -0.04604 37098 ft 436 kts 155°
2026-04-30 13:12 45.21902 -0.00866 37095 ft 437 kts 155°
2026-04-30 13:13 45.13661 0.04734 37097 ft 439 kts 156°
2026-04-30 13:14 45.05383 0.10354 37099 ft 440 kts 156°
2026-04-30 13:14 44.97091 0.15950 37108 ft 441 kts 157°
2026-04-30 13:15 44.88815 0.21528 37122 ft 441 kts 157°
2026-04-30 13:16 44.83273 0.25255 37122 ft 441 kts 157°
2026-04-30 13:16 44.77729 0.28985 37126 ft 442 kts 157°
2026-04-30 13:17 44.69405 0.34558 37128 ft 442 kts 157°
2026-04-30 13:18 44.61077 0.40098 37120 ft 441 kts 157°
2026-04-30 13:18 44.52772 0.45617 37114 ft 440 kts 157°
2026-04-30 13:19 44.47233 0.49292 37114 ft 440 kts 157°
2026-04-30 13:19 44.41696 0.52967 37104 ft 440 kts 158°
2026-04-30 13:20 44.36142 0.56608 37108 ft 441 kts 158°
2026-04-30 13:20 44.30573 0.60228 37109 ft 441 kts 158°
2026-04-30 13:21 44.25005 0.63843 37111 ft 441 kts 158°
2026-04-30 13:22 44.16688 0.69272 37112 ft 443 kts 158°
2026-04-30 13:22 44.08304 0.74708 37111 ft 443 kts 159°
2026-04-30 13:23 43.99914 0.80119 37109 ft 444 kts 159°
2026-04-30 13:24 43.89030 0.88359 37106 ft 455 kts 141°
2026-04-30 13:25 43.85054 0.95260 37103 ft 462 kts 126°
2026-04-30 13:25 43.81541 1.02721 37103 ft 463 kts 127°
2026-04-30 13:26 43.72637 1.21421 37107 ft 466 kts 127°
2026-04-30 13:28 43.63151 1.39460 37112 ft 463 kts 132°
2026-04-30 13:28 43.57075 1.49851 37105 ft 465 kts 133°
2026-04-30 13:29 43.48934 1.63713 37094 ft 465 kts 133°
2026-04-30 13:31 43.38734 1.80937 37088 ft 465 kts 137°
2026-04-30 13:31 43.30836 1.87915 37092 ft 445 kts 168°
2026-04-30 13:32 43.24829 1.89218 37095 ft 435 kts 181°
2026-04-30 13:33 43.12723 1.90371 37096 ft 437 kts 181°
2026-04-30 13:34 43.03627 1.91246 37091 ft 436 kts 181°
2026-04-30 13:35 42.91495 1.92382 37092 ft 438 kts 181°
2026-04-30 13:36 42.79322 1.93543 37098 ft 439 kts 182°
2026-04-30 13:36 42.70195 1.94696 37099 ft 445 kts 172°
2026-04-30 13:37 42.67227 1.96019 37109 ft 453 kts 161°
2026-04-30 13:37 42.61903 2.00779 37104 ft 465 kts 144°
2026-04-30 13:38 42.54469 2.09167 37119 ft 466 kts 145°
2026-04-30 13:39 42.44466 2.20366 37122 ft 466 kts 145°
2026-04-30 13:40 42.36964 2.28765 37097 ft 467 kts 145°
2026-04-30 13:40 42.31927 2.34373 37118 ft 470 kts 146°
2026-04-30 13:41 42.26877 2.39979 37115 ft 470 kts 146°
2026-04-30 13:41 42.22676 2.44638 37117 ft 470 kts 146°
2026-04-30 13:42 42.17619 2.50233 37114 ft 470 kts 146°
2026-04-30 13:42 42.10026 2.58618 37113 ft 471 kts 146°
2026-04-30 13:43 42.04955 2.64201 37111 ft 471 kts 146°
2026-04-30 13:43 41.99881 2.69779 37112 ft 471 kts 146°
2026-04-30 13:44 41.94806 2.75341 37088 ft 471 kts 146°
2026-04-30 13:44 41.89647 2.80751 37111 ft 470 kts 149°
2026-04-30 13:45 41.81629 2.88268 37103 ft 469 kts 152°
2026-04-30 13:46 41.76271 2.93262 37105 ft 469 kts 151°
2026-04-30 13:46 41.70947 2.98321 37105 ft 470 kts 150°
2026-04-30 13:47 41.65625 3.03405 37105 ft 470 kts 150°
2026-04-30 13:47 41.60303 3.08472 36474 ft 470 kts 150°
2026-04-30 13:47 41.57633 3.10999 35748 ft 471 kts 151°
2026-04-30 13:48 41.54989 3.13496 35173 ft 470 kts 151°
2026-04-30 13:48 41.52298 3.16036 34673 ft 466 kts 151°
2026-04-30 13:48 41.49698 3.18491 34157 ft 462 kts 151°
2026-04-30 13:48 41.47050 3.20884 33625 ft 457 kts 153°
2026-04-30 13:49 41.44383 3.23135 33119 ft 451 kts 155°
2026-04-30 13:49 41.41710 3.25286 32625 ft 446 kts 156°
2026-04-30 13:49 41.39051 3.27387 31966 ft 445 kts 156°
2026-04-30 13:49 41.36365 3.29512 30812 ft 452 kts 155°
2026-04-30 13:50 41.33668 3.31675 29900 ft 451 kts 155°
2026-04-30 13:50 41.28406 3.35983 28879 ft 438 kts 154°
2026-04-30 13:50 41.25838 3.38098 28414 ft 431 kts 154°
2026-04-30 13:51 41.23307 3.40181 27961 ft 425 kts 154°
2026-04-30 13:51 41.20801 3.42233 27508 ft 420 kts 154°
2026-04-30 13:51 41.18324 3.44255 27063 ft 416 kts 154°
2026-04-30 13:51 41.15870 3.46252 26621 ft 412 kts 154°
2026-04-30 13:52 41.13435 3.48227 26168 ft 409 kts 154°
2026-04-30 13:52 41.11013 3.50187 25723 ft 406 kts 154°
2026-04-30 13:52 41.08606 3.52130 25263 ft 404 kts 154°
2026-04-30 13:52 41.06211 3.54067 24789 ft 402 kts 154°
2026-04-30 13:53 41.03831 3.55993 24327 ft 400 kts 154°
2026-04-30 13:53 41.01457 3.57916 23840 ft 399 kts 154°
2026-04-30 13:53 40.99094 3.59830 23306 ft 398 kts 154°
2026-04-30 13:53 40.96742 3.61735 22815 ft 395 kts 154°
2026-04-30 13:54 40.94409 3.63621 22322 ft 392 kts 154°
2026-04-30 13:54 40.92095 3.65492 21854 ft 389 kts 154°
2026-04-30 13:54 40.89797 3.67350 21382 ft 386 kts 153°
2026-04-30 13:54 40.87515 3.69190 20917 ft 383 kts 153°
2026-04-30 13:55 40.85249 3.71009 20461 ft 379 kts 153°
2026-04-30 13:55 40.83031 3.72787 20007 ft 377 kts 153°
2026-04-30 13:55 40.80772 3.74602 19551 ft 374 kts 153°
2026-04-30 13:55 40.78584 3.76360 19107 ft 372 kts 153°
2026-04-30 13:56 40.76352 3.78148 18656 ft 370 kts 153°
2026-04-30 13:56 40.74191 3.79881 18189 ft 368 kts 153°
2026-04-30 13:56 40.72013 3.81631 17737 ft 365 kts 152°
2026-04-30 13:56 40.69859 3.83363 17311 ft 361 kts 152°
2026-04-30 13:57 40.67726 3.85071 16891 ft 357 kts 153°
2026-04-30 13:57 40.65610 3.86759 16465 ft 354 kts 153°
2026-04-30 13:57 40.63510 3.88432 16050 ft 351 kts 152°
2026-04-30 13:57 40.61428 3.90091 15638 ft 349 kts 152°
2026-04-30 13:58 40.59360 3.91738 15229 ft 346 kts 152°
2026-04-30 13:58 40.55264 3.94997 14419 ft 342 kts 152°
2026-04-30 13:58 40.53235 3.96610 14008 ft 340 kts 152°
2026-04-30 13:59 40.51219 3.98210 13586 ft 337 kts 152°
2026-04-30 13:59 40.49119 3.99484 13174 ft 329 kts 165°
2026-04-30 13:59 40.46929 4.00274 12781 ft 324 kts 168°
2026-04-30 13:59 40.44760 4.01042 12385 ft 321 kts 168°
2026-04-30 14:00 40.42617 4.01804 11990 ft 318 kts 168°
2026-04-30 14:00 40.38408 4.03304 11449 ft 304 kts 167°
2026-04-30 14:00 40.36393 4.04024 11074 ft 298 kts 167°
2026-04-30 14:01 40.34403 4.04731 10619 ft 295 kts 167°
2026-04-30 14:01 40.32428 4.05431 10162 ft 293 kts 167°
2026-04-30 14:01 40.30469 4.06126 9665 ft 291 kts 167°
2026-04-30 14:01 40.28530 4.06814 9228 ft 286 kts 167°
2026-04-30 14:02 40.26628 4.07489 8831 ft 280 kts 167°
2026-04-30 14:02 40.24761 4.08148 8396 ft 276 kts 167°
2026-04-30 14:02 40.22921 4.08794 7972 ft 272 kts 166°
2026-04-30 14:02 40.21113 4.09429 7575 ft 266 kts 166°
2026-04-30 14:03 40.19339 4.10052 7178 ft 262 kts 166°
2026-04-30 14:03 40.17597 4.10663 6788 ft 257 kts 166°
2026-04-30 14:03 40.15904 4.11258 6395 ft 253 kts 165°
2026-04-30 14:03 40.14215 4.11853 5989 ft 250 kts 165°
2026-04-30 14:04 40.12585 4.12430 5833 ft 235 kts 165°
2026-04-30 14:04 40.11058 4.12972 5696 ft 220 kts 165°
2026-04-30 14:04 40.09634 4.13553 5491 ft 211 kts 154°
2026-04-30 14:04 40.08471 4.14664 5248 ft 208 kts 130°
2026-04-30 14:05 40.07836 4.16340 4932 ft 210 kts 103°
2026-04-30 14:05 40.07867 4.18299 4442 ft 222 kts 84°
2026-04-30 14:05 40.08011 4.20291 4196 ft 217 kts 89°
2026-04-30 14:05 40.08033 4.22221 4058 ft 209 kts 96°
2026-04-30 14:06 40.07586 4.23976 4036 ft 205 kts 124°
2026-04-30 14:06 40.05209 4.25731 3782 ft 205 kts 179°
2026-04-30 14:07 40.02420 4.25202 3319 ft 200 kts 187°
2026-04-30 14:07 40.01063 4.24918 3039 ft 196 kts 187°
2026-04-30 14:07 39.99736 4.24643 2788 ft 191 kts 187°
2026-04-30 14:08 39.97112 4.24102 2278 ft 189 kts 187°
2026-04-30 14:08 39.95843 4.23840 2029 ft 180 kts 187°
2026-04-30 14:08 39.93505 4.23358 1588 ft 157 kts 187°
2026-04-30 14:09 39.92487 4.23143 1350 ft 142 kts 187°
2026-04-30 14:09 39.91544 4.22956 1141 ft 134 kts 185°
2026-04-30 14:09 39.89729 4.22600 786 ft 130 kts 188°
2026-04-30 14:10 39.88840 4.22407 621 ft 129 kts 186°
2026-04-30 14:10 39.87967 4.22219 458 ft 130 kts 186°
2026-04-30 14:10 39.87077 4.22035 335 ft 129 kts 187°
2026-04-30 14:10 39.86306 4.21873 304 ft 78 kts 189°
2026-04-30 14:11 39.85970 4.21806 302 ft 38 kts 189°
2026-04-30 14:11 39.85735 4.21758 297 ft 31 kts 186°
2026-04-30 14:11 39.85551 4.21780 290 ft 16 kts 164°
2026-04-30 14:11 39.85441 4.21830 284 ft 18 kts 160°
2026-04-30 14:12 39.85402 4.21907 282 ft 10 kts 69°
2026-04-30 14:12 39.85460 4.21939 284 ft 9 kts
2026-04-30 14:12 39.85520 4.21951 285 ft 9 kts
2026-04-30 14:12 39.85562 4.21960 287 ft 10 kts
2026-04-30 14:13 39.85663 4.21980 294 ft 12 kts
2026-04-30 14:13 39.85752 4.21997 292 ft 14 kts
2026-04-30 14:13 39.85853 4.22017 295 ft 15 kts 11°
2026-04-30 14:13 39.85966 4.22044 296 ft 18 kts
2026-04-30 14:14 39.86101 4.22070 295 ft 20 kts
2026-04-30 14:14 39.86187 4.22130 294 ft 12 kts 79°
2026-04-30 14:14 39.86192 4.22244 289 ft 14 kts 58°
2026-04-30 14:14 39.86287 4.22279 288 ft 15 kts
2026-04-30 14:15 39.86391 4.22300 288 ft 16 kts
2026-04-30 14:15 39.86470 4.22332 293 ft 9 kts 59°
2026-04-30 14:15 39.86469 4.22397 286 ft 2 kts 100°
2026-04-30 14:15 39.86469 4.22399 286 ft 0 kts 100°